Погода в Сунтаре

Хотите узнать прогноз погоды в Сунтаре? Тогда Вам сюда: Погода в Сунтаре

Поиск расширенной информации на нашем сайте:

Полезная информация:

Новости сайта



02.01.2020
Опубликован Долгосрочный прогноз погоды по городам России и ближнего зарубежья на январь 2020 года.
Карты: Прогноз на январь и февраль 2020 года, Сравнение прогнозируемой аномалии приземной температуры воздуха на январь 2020 года по разным моделям.




Погода в Сунтаре - сегодня

Время (UTC), дата Ветер
(°,м/с) 
Видим.   Явления Облачность Т
(°С)
Тd
(°С)
f(%) Тe
(°С)
Pmin
(гПа)
dP
(гПа)
Po
(мм)
O2
(г/м3)
Тmin Tmax R s Состояние
почвы
21 29.11.20 230 (ЮЗ) 10 км  слаб. снег  10/0 средняя, верхняя 
[Ac trans|Cs]
-19.3 -20.5 90 -22  1030.7  -0.6  759  331           
00 30.11.20 240 (ЮЗ) 4000 м  слаб. снег  10/0 средняя, верхняя 
[Ac trans|Cs]
-17 -18.9 85 -21  1029.6  -1  758  327  -21.8    0.2  24  равномерный
сухой снег
100% 
03 30.11.20 250 (З) 20000 м  {снег}  10/0 средняя, верхняя 
[Ac trans|Cs]
-17.2 -19.8 80 -22  1029.3  -0.3  758  327           
06 30.11.20 220 (ЮЗ) 20000 м  {снег}  10/0 средняя, верхняя 
[Ac trans|Cs]
-17.6 -20.2 80 -22  1028.7  -0.6  758  328           
09 30.11.20 190 (Ю) 10 км  слаб. снег  10/0 средняя 
[As op]
-17.8 -19.7 85 -22  1027.7  -1  757  328           
12 30.11.20 200 (Ю) 10 км  слаб. снег  10/0 средняя, верхняя 
[Ac trans|Cs]
-18 -19.9 85 -18  1026.5  -1.2  756  328    -16.9  0.6     
15 30.11.20 210 (ЮЗ) 2000 м  снег  10/0 средняя 
[As op]
-17.1 -19 85 -21  1025.4  -1  755  326           
18 30.11.20 250 (З) 4000 м  слаб. снег  10/0 средняя 
[As op]
-16.3 -18.2 85 -19  1024.5  -0.8  755  325           
21 30.11.20 240 (ЮЗ) 4000 м  слаб. снег  10/0 средняя 
[As op]
-16.8 -18.7 85 -21  1023.9  -0.7  754  325           
00 01.12.20 200 (Ю) 20000 м  {снег}  3/0 средняя 
[Ac trans]
-19.2 -21.8 80 -23  1023.1  -0.9  753  328  -19.2    0.5  23  равномерный
сухой снег
100% 
03 01.12.20 210 (ЮЗ) 20000 м    10/0 средняя, верхняя 
[Ac trans|Ci fib]
-19 -21.6 80 -22  1022.4  -0.7  753  328  -19.5         
06 01.12.20 240 (ЮЗ) 20000 м  в посл. час снег  10/0 средняя, верхняя 
[Ac trans|Ci fib]
-15.7 -18.4 80 -18  1021  -1.2  752  323           
09 01.12.20 220 (ЮЗ) 10 км  слаб. снег  10/0 средняя, верхняя 
[Ac trans|Cs]
-16.4 -19 80 -20  1019.9  -1.1  751  323           
12 01.12.20 250 (З) 20000 м  позёмок{снег}  10/0 средняя, верхняя 
[Ac trans|Ci fib]
-15.2 -17.9 80 -20  1018.6  -1.2  750  322    -14.9  0.2     
15 01.12.20 230 (ЮЗ) 4000 м  слаб. ливневой снег  10/6 600 м кучево-дожд., верхняя 
[Cb cap|Cs]
-15.8 -18.5 80 -21  1016.5  -2.1  749  322           
18 01.12.20 240 (ЮЗ) 20000 м  {ливн. осадки}  10/3 600 м кучево-дожд., верхняя 
[Cb cap|Cs]
-15.3 -18 80 -18  1016.8  0.3  749  321           
21 01.12.20 260 (З) 20000 м    10/0 верхняя 
[Cs]
-13.8 -16.5 80 -16  1017.6  0.9  749  319           
00 02.12.20 210 (ЮЗ) 20000 м    10/0 верхняя 
[Cs]
-14.4 -17.1 80 -17  1017.9  0.3  750  320  -16.4    25  равномерный
сухой снег
100% 
03 02.12.20 220 (ЮЗ) 4000 м  слаб. снег  10/0 средняя 
[As op]
-12.2 -14.2 85 -16  1015.6  -2.1  748  317           
06 02.12.20 240 (ЮЗ) 5{10}  2000 м  снег  10/0 средняя 
[As op]
-11.3 -13.3 85 -16  1013.6  -1.9  747  315           
09 02.12.20 240 (ЮЗ) 1000 м  снег  10/0 средняя 
[As op]
-11.2 -13.2 85 -15  1012.8  -0.8  746  315           
12 02.12.20 250 (З) 10 км  слаб. ливневой снег  10/3 600 м кучево-дожд., средняя 
[Cb cap|Ac trans]
-10.6 -13.4 80 -15  1012.7  746  314    -10.5     
15 02.12.20 240 (ЮЗ) 10 км  слаб. снег{ливн. осадки}  10/0 средняя 
[As op]
-10.5 -13.3 80 -15  1012.6  -0.1  746  314           
18 02.12.20 260 (З) 10 км  слаб. снег{ливн. осадки}  10/0 верхняя 
[Cs]
-10.2 -13 80 -14  1011.5  -1.1  745  313           
21 02.12.20 230 (ЮЗ) 4000 м  слаб. снег  10/0 средняя 
[As op]
-9.6 -11.7 85 -14  1009.6  -1.8  744  312           
Время (UTC), дата Ветер
(°,м/с) 
Видим.   Явления Облачность Т
(°С)
Тd
(°С)
f(%) Тe
(°С)
Pmin
(гПа)
dP
(гПа)
Po
(мм)
O2
(г/м3)
Тmin Tmax R s Состояние
почвы

Для получения пояснительной информации подведите курсор к названию столбца.

ПОГОДА в Сунтаре - архив

Всё, что Вы хотите узнать о погоде в Сунтаре - удобно и подробно!

Выберите нужную дату (начиная с 1 января 2019* года) и нажмите кнопку "Найти".
Будут отображены архивные сводки погоды по пункту Сунтар, начиная с указанной даты.


Отображать данные в формате CSV (для использования в таблицах Excel)


Внимание! Наш архив погоды предназначен исключительно для личного некоммерческого использования в познавательных целях. Если Вам необходимы официальные справки о состоянии погоды (для производственных, юридических, коммерческих и т.п. целей), обращайтесь в органы Росгидромета.

*Примечание: данная дата относится к архиву по метеостанциям СССР (Россия, СНГ, Балтия).
Архив по метеостанциям Зарубежной Европы и Азии (кроме Китая) хранится 10 дней, по другим регионам земного шара (Китай, Африка, Америка, Австралия, Океания) - 1 день.

Сунтар - район местоположения метеостанции


Название, широта, долгота, высота метеостанции:
Сунтар 62.2°ш. 117.6°д. 133 м над ур. моря [Российская Федерация]

Дополнительная информация

В oтличие oт бoльшинства пoгoдных сайтoв мы публикуем пoдрoбную метеoинфoрмацию в детальнoм прoфессиoнальнoм фoрмате.

Характеристики температуры и влажнoсти вoздуха измеряются на высoте 2 м в тени вдали oт зданий и деревьев.
Скoрoсть ветра измеряется на высoте 10 м (на урoвне рoста челoвека скoрoсть ветра ниже в 1.5-2 раза). Если метеoстанция нахoдится в гoрoде или в лесу, тo скoрoсть ветра занижена на 2-4 м/с пo сравнению с oткрытым местoм. Скoрoсть ветра над акватoриями крупных рек и oзёр, а также на вершинах хoлмoв на 2-5 м/с выше, чем в oбычных услoвиях.
Атмoсфернoе давление в разных тoчках местнoсти мoжет значительнo oтличаться oт давления на метеoстанции, в зависимoсти oт услoвий рельефа (при пoдъёме на 10 м давление пoнижается примернo на 1 мм рт.ст.).